| time (UTC) | temp F | wind direction | speed knots | gust knots | rain 1hr in | rain 24hr in | rain mn in | humidity % | barometer mb |
| 20260507132536 | 50 | 275 | 8.7 | 13.9 | 0.00 | 0.00 | 0.00 | 70 | 1007.7 |
| 20260507132036 | 50 | 268 | 11.3 | 13.0 | 0.00 | 0.00 | 0.00 | 70 | 1007.7 |
| 20260507131536 | 50 | 272 | 7.8 | 10.4 | 0.00 | 0.00 | 0.00 | 70 | 1007.6 |
| 20260507131006 | 50 | 265 | 7.8 | 12.2 | 0.00 | 0.00 | 0.00 | 70 | 1007.6 |
| 20260507130506 | 50 | 278 | 7.8 | 11.3 | 0.00 | 0.00 | 0.00 | 71 | 1007.7 |
| 20260507125936 | 49 | 265 | 7.0 | 8.7 | 0.00 | 0.00 | 0.00 | 73 | 1007.7 |
| 20260507125436 | 49 | 263 | 7.0 | 10.4 | 0.00 | 0.00 | 0.00 | 73 | 1007.6 |
| 20260507124936 | 48 | 270 | 7.0 | 10.4 | 0.00 | 0.00 | 0.00 | 73 | 1007.8 |
| 20260507124436 | 48 | 270 | 5.2 | 7.0 | 0.00 | 0.00 | 0.00 | 74 | 1007.8 |
| 20260507123906 | 48 | 266 | 7.0 | 10.4 | 0.00 | 0.00 | 0.00 | 74 | 1007.7 |
| 20260507123406 | 47 | 266 | 7.0 | 8.7 | 0.00 | 0.00 | 0.00 | 75 | 1007.7 |
| 20260507122836 | 47 | 273 | 7.0 | 7.8 | 0.00 | 0.00 | 0.00 | 74 | 1007.8 |
| 20260507122336 | 47 | 273 | 6.1 | 7.8 | 0.00 | 0.00 | 0.00 | 74 | 1007.8 |
| 20260507121806 | 47 | 287 | 4.3 | 6.1 | 0.00 | 0.00 | 0.00 | 74 | 1007.8 |
| 20260507121236 | 47 | 291 | 2.6 | 2.6 | 0.00 | 0.00 | 0.00 | 74 | 1007.9 |
| 20260507120736 | 47 | 291 | 4.3 | 4.3 | 0.00 | 0.00 | 0.00 | 74 | 1007.8 |
| 20260507120236 | 47 | 293 | 5.2 | 6.1 | 0.00 | 0.00 | 0.00 | 75 | 1007.8 |
| 20260507115706 | 47 | 284 | 7.0 | 8.7 | 0.00 | 0.00 | 0.00 | 75 | 1007.8 |
| 20260507115136 | 46 | 267 | 7.0 | 7.8 | 0.00 | 0.00 | 0.00 | 75 | 1007.7 |
| 20260507114606 | 46 | 294 | 4.3 | 6.1 | 0.00 | 0.00 | 0.00 | 74 | 1007.8 |
| 20260507114036 | 46 | 294 | 4.3 | 4.3 | 0.00 | 0.00 | 0.00 | 73 | 1007.9 |
| 20260507113536 | 46 | 296 | 4.3 | 6.1 | 0.00 | 0.00 | 0.00 | 72 | 1007.9 |
| 20260507113036 | 46 | 293 | 2.6 | 4.3 | 0.00 | 0.00 | 0.00 | 73 | 1007.9 |
| 20260507112506 | 46 | 295 | 4.3 | 6.1 | 0.00 | 0.00 | 0.00 | 73 | 1007.9 |
| 20260507112006 | 47 | 292 | 5.2 | 6.1 | 0.00 | 0.00 | 0.00 | 72 | 1007.8 |
| 20260507111436 | 47 | 291 | 6.1 | 7.0 | 0.00 | 0.00 | 0.00 | 73 | 1007.8 |
| 20260507110936 | 47 | 276 | 6.1 | 7.0 | 0.00 | 0.00 | 0.00 | 72 | 1007.7 |
| 20260507110406 | 47 | 282 | 7.0 | 8.7 | 0.00 | 0.00 | 0.00 | 73 | 1007.8 |
| 20260507105836 | 46 | 276 | 6.1 | 7.8 | 0.00 | 0.00 | 0.00 | 72 | 1007.8 |
| 20260507105307 | 46 | 285 | 6.1 | 7.8 | 0.00 | 0.00 | 0.00 | 73 | 1007.9 |
| 20260507104806 | 46 | 271 | 6.1 | 7.8 | 0.00 | 0.00 | 0.00 | 73 | 1007.9 |
| 20260507104236 | 45 | 273 | 6.1 | 7.0 | 0.00 | 0.00 | 0.00 | 73 | 1007.9 |
| 20260507103706 | 44 | 268 | 5.2 | 7.0 | 0.00 | 0.00 | 0.00 | 72 | 1007.9 |
| 20260507103206 | 44 | 278 | 2.6 | 5.2 | 0.00 | 0.00 | 0.00 | 70 | 1007.8 |
| 20260507102636 | 44 | 278 | 2.6 | 2.6 | 0.00 | 0.00 | 0.00 | 69 | 1007.9 |
| 20260507102106 | 43 | 277 | 1.7 | 2.6 | 0.00 | 0.00 | 0.00 | 69 | 1008.0 |
| 20260507101606 | 43 | 277 | 0.9 | 1.7 | 0.00 | 0.00 | 0.00 | 68 | 1008.1 |
| 20260507101036 | 43 | 275 | 0.9 | 0.9 | 0.00 | 0.00 | 0.00 | 66 | 1008.1 |
| 20260507100536 | 43 | 275 | 0.9 | 1.7 | 0.00 | 0.00 | 0.00 | 65 | 1008.1 |
| 20260507100006 | 44 | 275 | 0.9 | 1.7 | 0.00 | 0.00 | 0.00 | 69 | 1008.1 |
| 20260507095436 | 43 | 267 | 1.7 | 2.6 | 0.00 | 0.00 | 0.00 | 67 | 1008.1 |
| 20260507094936 | 42 | 225 | 0.9 | 1.7 | 0.00 | 0.00 | 0.00 | 66 | 1008.2 |
| 20260507094406 | 41 | 215 | 0.0 | 0.9 | 0.00 | 0.00 | 0.00 | 63 | 1008.2 |
| 20260507093836 | 41 | 215 | 0.0 | 1.7 | 0.00 | 0.00 | 0.00 | 62 | 1008.2 |
| 20260507093306 | 41 | 215 | 0.0 | 0.0 | 0.00 | 0.00 | 0.00 | 62 | 1008.2 |
| 20260507092806 | 41 | 215 | 0.9 | 1.7 | 0.00 | 0.00 | 0.00 | 61 | 1008.2 |
| 20260507092236 | 41 | 215 | 0.9 | 1.7 | 0.00 | 0.00 | 0.00 | 60 | 1008.2 |
| 20260507091706 | 41 | 215 | 0.9 | 1.7 | 0.00 | 0.00 | 0.00 | 60 | 1008.2 |
| 20260507091136 | 41 | 215 | 1.7 | 2.6 | 0.00 | 0.00 | 0.00 | 61 | 1008.2 |
| 20260507090606 | 41 | 227 | 2.6 | 4.3 | 0.00 | 0.00 | 0.00 | 60 | 1008.2 |
| 20260507090106 | 41 | 226 | 1.7 | 4.3 | 0.00 | 0.00 | 0.00 | 62 | 1008.2 |
| 20260507085536 | 40 | 213 | 4.3 | 5.2 | 0.00 | 0.00 | 0.00 | 65 | 1008.1 |
| 20260507085006 | 41 | 215 | 4.3 | 4.3 | 0.00 | 0.00 | 0.00 | 64 | 1008.2 |
| 20260507084506 | 40 | 210 | 5.2 | 5.2 | 0.00 | 0.00 | 0.00 | 65 | 1008.2 |
| 20260507084006 | 41 | 193 | 4.3 | 5.2 | 0.00 | 0.00 | 0.00 | 64 | 1008.2 |
| 20260507083436 | 41 | 187 | 1.7 | 2.6 | 0.00 | 0.00 | 0.00 | 64 | 1008.2 |
| 20260507082936 | 42 | 195 | 4.3 | 5.2 | 0.00 | 0.00 | 0.00 | 64 | 1008.3 |
| 20260507082406 | 42 | 190 | 4.3 | 5.2 | 0.00 | 0.00 | 0.00 | 64 | 1008.3 |
| 20260507081836 | 42 | 180 | 2.6 | 2.6 | 0.00 | 0.00 | 0.00 | 63 | 1008.3 |
| 20260507081337 | 43 | 169 | 4.3 | 5.2 | 0.00 | 0.00 | 0.00 | 63 | 1008.2 |
| 20260507080836 | 43 | 158 | 2.6 | 7.0 | 0.00 | 0.00 | 0.00 | 63 | 1008.0 |
| 20260507080336 | 43 | 158 | 2.6 | 4.3 | 0.00 | 0.00 | 0.00 | 62 | 1008.0 |
| 20260507075806 | 43 | 163 | 4.3 | 6.1 | 0.00 | 0.00 | 0.00 | 62 | 1008.0 |
| 20260507075236 | 44 | 160 | 4.3 | 6.1 | 0.00 | 0.00 | 0.00 | 62 | 1007.8 |
| 20260507074706 | 44 | 157 | 4.3 | 5.2 | 0.00 | 0.00 | 0.00 | 60 | 1008.0 |
| 20260507074206 | 44 | 130 | 2.6 | 4.3 | 0.00 | 0.00 | 0.00 | 59 | 1008.1 |
| 20260507073706 | 44 | 128 | 2.6 | 2.6 | 0.00 | 0.00 | 0.00 | 58 | 1008.3 |
| 20260507073136 | 46 | 3 | 0.0 | 0.0 | 0.00 | 0.00 | 0.00 | 55 | 1008.3 |
| 20260507072606 | 46 | 3 | 0.0 | 0.0 | 0.00 | 0.00 | 0.00 | 55 | 1008.3 |
| 20260507072107 | 46 | 7 | 0.0 | 0.0 | 0.00 | 0.00 | 0.00 | 55 | 1008.2 |
| 20260507071606 | 46 | 158 | 4.3 | 4.3 | 0.00 | 0.00 | 0.00 | 55 | 1008.2 |
| 20260507071036 | 46 | 158 | 4.3 | 4.3 | 0.00 | 0.00 | 0.00 | 55 | 1008.4 |
| 20260507070536 | 46 | 157 | 4.3 | 4.3 | 0.00 | 0.00 | 0.00 | 54 | 1008.5 |
| 20260507070010 | 47 | 153 | 4.3 | 6.1 | 0.00 | 0.00 | 0.00 | 53 | 1008.5 |
| 20260507065506 | 47 | 157 | 4.3 | 5.2 | 0.00 | 0.00 | 0.00 | 50 | 1008.5 |
| 20260507064936 | 48 | 159 | 5.2 | 6.1 | 0.00 | 0.00 | 0.00 | 48 | 1008.5 |
| 20260507064436 | 48 | 153 | 6.1 | 7.0 | 0.00 | 0.00 | 0.00 | 48 | 1008.6 |
| 20260507063906 | 47 | 157 | 6.1 | 7.8 | 0.00 | 0.00 | 0.00 | 53 | 1008.8 |
| 20260507063406 | 47 | 150 | 4.3 | 4.3 | 0.00 | 0.00 | 0.00 | 55 | 1008.8 |
| 20260507062836 | 46 | 115 | 1.7 | 2.6 | 0.00 | 0.00 | 0.00 | 57 | 1008.8 |
| 20260507062336 | 47 | 104 | 2.6 | 2.6 | 0.00 | 0.00 | 0.00 | 56 | 1008.8 |
| 20260507061836 | 47 | 104 | 1.7 | 2.6 | 0.00 | 0.00 | 0.00 | 55 | 1008.9 |
| 20260507061336 | 47 | 104 | 1.7 | 2.6 | 0.00 | 0.00 | 0.00 | 54 | 1009.0 |
| 20260507060836 | 46 | 104 | 0.9 | 1.7 | 0.00 | 0.00 | 0.00 | 55 | 1009.0 |
| 20260507060306 | 46 | 104 | 1.7 | 2.6 | 0.00 | 0.00 | 0.00 | 57 | 1008.9 |
| 20260507055806 | 46 | 104 | 0.0 | 0.9 | 0.00 | 0.00 | 0.00 | 59 | 1008.9 |
| 20260507055236 | 46 | 104 | 1.7 | 2.6 | 0.00 | 0.00 | 0.00 | 56 | 1008.7 |
| 20260507054736 | 46 | 104 | 0.9 | 1.7 | 0.00 | 0.00 | 0.00 | 55 | 1008.7 |
| 20260507054206 | 47 | 104 | 1.7 | 2.6 | 0.00 | 0.00 | 0.00 | 56 | 1008.7 |
| 20260507053636 | 47 | 104 | 0.0 | 1.7 | 0.00 | 0.00 | 0.00 | 55 | 1008.7 |
| 20260507053106 | 46 | 104 | 0.9 | 1.7 | 0.00 | 0.00 | 0.00 | 55 | 1008.6 |
| 20260507052536 | 46 | 104 | 1.7 | 2.6 | 0.00 | 0.00 | 0.00 | 57 | 1008.5 |
| 20260507052036 | 47 | 104 | 0.9 | 1.7 | 0.00 | 0.00 | 0.00 | 58 | 1008.4 |
| 20260507051506 | 47 | 137 | 2.6 | 4.3 | 0.00 | 0.00 | 0.00 | 56 | 1008.3 |
| 20260507050936 | 47 | 137 | 1.7 | 2.6 | 0.00 | 0.00 | 0.00 | 58 | 1008.3 |
| 20260507050406 | 47 | 137 | 1.7 | 2.6 | 0.00 | 0.00 | 0.00 | 57 | 1008.3 |
| 20260507045836 | 48 | 137 | 0.9 | 1.7 | 0.00 | 0.00 | 0.00 | 57 | 1008.3 |
| 20260507045336 | 48 | 137 | 2.6 | 2.6 | 0.00 | 0.00 | 0.00 | 55 | 1008.2 |
| 20260507044806 | 48 | 137 | 1.7 | 2.6 | 0.00 | 0.00 | 0.00 | 55 | 1008.2 |
| 20260507044306 | 48 | 137 | 2.6 | 2.6 | 0.00 | 0.00 | 0.00 | 54 | 1008.1 |
| 20260507043736 | 49 | 131 | 4.3 | 6.1 | 0.00 | 0.00 | 0.00 | 53 | 1008.1 |
| 20260507043206 | 49 | 138 | 4.3 | 4.3 | 0.00 | 0.00 | 0.00 | 52 | 1008.1 |
| 20260507042636 | 49 | 138 | 2.6 | 4.3 | 0.00 | 0.00 | 0.00 | 53 | 1008.1 |
| 20260507042136 | 49 | 130 | 2.6 | 2.6 | 0.00 | 0.00 | 0.00 | 52 | 1008.0 |
| 20260507041636 | 49 | 123 | 5.2 | 6.1 | 0.00 | 0.00 | 0.00 | 52 | 1008.0 |
| 20260507041106 | 49 | 103 | 4.3 | 6.1 | 0.00 | 0.00 | 0.00 | 53 | 1008.0 |
| 20260507040606 | 50 | 103 | 2.6 | 2.6 | 0.00 | 0.00 | 0.00 | 52 | 1008.0 |
| 20260507040036 | 50 | 103 | 2.6 | 5.2 | 0.00 | 0.00 | 0.00 | 52 | 1008.0 |
| 20260507035506 | 51 | 79 | 1.7 | 4.3 | 0.00 | 0.00 | 0.00 | 51 | 1007.8 |
| 20260507034936 | 51 | 104 | 4.3 | 5.2 | 0.00 | 0.00 | 0.00 | 47 | 1007.7 |
| 20260507034436 | 52 | 135 | 6.1 | 7.8 | 0.00 | 0.00 | 0.00 | 48 | 1007.7 |
| 20260507033906 | 52 | 169 | 5.2 | 6.1 | 0.00 | 0.00 | 0.00 | 47 | 1007.6 |
| 20260507033406 | 51 | 174 | 6.1 | 6.1 | 0.00 | 0.00 | 0.00 | 49 | 1007.5 |
| 20260507032836 | 51 | 167 | 6.1 | 7.0 | 0.00 | 0.00 | 0.00 | 48 | 1007.7 |
| 20260507032306 | 52 | 162 | 4.3 | 5.2 | 0.00 | 0.00 | 0.00 | 46 | 1007.8 |
| 20260507031806 | 53 | 131 | 2.6 | 4.3 | 0.00 | 0.00 | 0.00 | 46 | 1008.0 |
| 20260507031306 | 53 | 121 | 4.3 | 6.1 | 0.00 | 0.00 | 0.00 | 44 | 1008.1 |
| 20260507030736 | 53 | 110 | 5.2 | 5.2 | 0.00 | 0.00 | 0.00 | 41 | 1008.2 |
| 20260507030206 | 53 | 101 | 4.3 | 2.6 | 0.00 | 0.00 | 0.00 | 40 | 1008.1 |
| 20260507025636 | 54 | 101 | 4.3 | 5.2 | 0.00 | 0.00 | 0.00 | 40 | 1008.0 |
| 20260507025136 | 54 | 101 | 4.3 | 6.1 | 0.00 | 0.00 | 0.00 | 41 | 1008.0 |
| 20260507024606 | 54 | 100 | 1.7 | 2.6 | 0.00 | 0.00 | 0.00 | 41 | 1008.0 |
| 20260507024106 | 55 | 99 | 4.3 | 5.2 | 0.00 | 0.00 | 0.00 | 40 | 1007.9 |
| 20260507023536 | 55 | 104 | 6.1 | 7.0 | 0.00 | 0.00 | 0.00 | 39 | 1007.7 |
| 20260507023036 | 55 | 104 | 5.2 | 7.0 | 0.00 | 0.00 | 0.00 | 38 | 1007.8 |
| 20260507022506 | 55 | 102 | 4.3 | 6.1 | 0.00 | 0.00 | 0.00 | 39 | 1007.8 |
| 20260507021936 | 56 | 100 | 4.3 | 6.1 | 0.00 | 0.00 | 0.00 | 38 | 1007.7 |
| 20260507021436 | 56 | 105 | 5.2 | 6.1 | 0.00 | 0.00 | 0.00 | 38 | 1007.4 |
| 20260507020906 | 56 | 96 | 2.6 | 2.6 | 0.00 | 0.00 | 0.00 | 37 | 1007.5 |
| 20260507020336 | 57 | 98 | 4.3 | 2.6 | 0.00 | 0.00 | 0.00 | 36 | 1007.3 |
| 20260507015807 | 57 | 104 | 6.1 | 8.7 | 0.00 | 0.00 | 0.00 | 35 | 1007.4 |
| 20260507015237 | 58 | 88 | 2.6 | 5.2 | 0.00 | 0.00 | 0.00 | 35 | 1007.5 |
| 20260507014737 | 58 | 107 | 6.1 | 7.8 | 0.00 | 0.00 | 0.00 | 34 | 1007.4 |
| 20260507014207 | 58 | 99 | 4.3 | 6.1 | 0.00 | 0.00 | 0.00 | 34 | 1007.4 |
| 20260507013707 | 59 | 106 | 6.1 | 7.0 | 0.00 | 0.00 | 0.00 | 33 | 1007.4 |
| 20260507013137 | 59 | 105 | 5.2 | 7.0 | 0.00 | 0.00 | 0.00 | 33 | 1007.4 |
| 20260507012607 | 59 | 107 | 5.2 | 6.1 | 0.00 | 0.00 | 0.00 | 33 | 1007.3 |
| 20260507012037 | 60 | 110 | 7.8 | 8.7 | 0.00 | 0.00 | 0.00 | 31 | 1007.3 |
| 20260507011537 | 60 | 111 | 7.0 | 8.7 | 0.00 | 0.00 | 0.00 | 31 | 1007.4 |
| 20260507011007 | 60 | 111 | 7.0 | 7.8 | 0.00 | 0.00 | 0.00 | 32 | 1007.4 |
| 20260507010507 | 60 | 114 | 7.0 | 8.7 | 0.00 | 0.00 | 0.00 | 32 | 1007.3 |
| 20260507010007 | 60 | 110 | 7.8 | 10.4 | 0.00 | 0.00 | 0.00 | 31 | 1007.3 |
| 20260507005507 | 60 | 109 | 8.7 | 11.3 | 0.00 | 0.00 | 0.00 | 32 | 1007.2 |
| 20260507005007 | 60 | 101 | 7.0 | 10.4 | 0.00 | 0.00 | 0.00 | 30 | 1007.1 |
| 20260507004507 | 60 | 107 | 7.8 | 10.4 | 0.00 | 0.00 | 0.00 | 31 | 1007.1 |
| 20260507003937 | 60 | 104 | 8.7 | 11.3 | 0.00 | 0.00 | 0.00 | 31 | 1007.2 |
| 20260507003437 | 60 | 106 | 6.1 | 8.7 | 0.00 | 0.00 | 0.00 | 30 | 1007.1 |
| 20260507002907 | 60 | 91 | 5.2 | 7.0 | 0.00 | 0.00 | 0.00 | 31 | 1007.1 |
| 20260507002337 | 61 | 107 | 8.7 | 10.4 | 0.00 | 0.00 | 0.00 | 30 | 1007.1 |
| 20260507001837 | 61 | 109 | 7.8 | 11.3 | 0.00 | 0.00 | 0.00 | 30 | 1007.1 |
| 20260507001307 | 61 | 111 | 10.4 | 13.0 | 0.00 | 0.00 | 0.00 | 30 | 1007.1 |
| 20260507000807 | 61 | 107 | 8.7 | 10.4 | 0.00 | 0.00 | 0.00 | 29 | 1007.2 |
| 20260507000237 | 61 | 96 | 4.3 | 6.1 | 0.00 | 0.00 | 0.00 | 29 | 1007.3 |
| 20260506235737 | 61 | 123 | 5.2 | 6.1 | 0.00 | 0.00 | 0.00 | 28 | 1007.3 |
| 20260506235207 | 61 | 118 | 6.1 | 8.7 | 0.00 | 0.00 | 0.00 | 29 | 1007.3 |
| 20260506234707 | 61 | 122 | 7.0 | 7.8 | 0.00 | 0.00 | 0.00 | 28 | 1007.2 |
| 20260506234137 | 61 | 113 | 7.0 | 8.7 | 0.00 | 0.00 | 0.00 | 28 | 1007.2 |
| 20260506233637 | 61 | 96 | 4.3 | 8.7 | 0.00 | 0.00 | 0.00 | 29 | 1007.3 |
| 20260506233137 | 61 | 112 | 7.0 | 8.7 | 0.00 | 0.00 | 0.00 | 29 | 1007.3 |
| 20260506232607 | 62 | 116 | 7.8 | 10.4 | 0.00 | 0.00 | 0.00 | 28 | 1007.4 |
| 20260506232107 | 62 | 97 | 4.3 | 5.2 | 0.00 | 0.00 | 0.00 | 28 | 1007.5 |
| 20260506231537 | 61 | 87 | 2.6 | 4.3 | 0.00 | 0.00 | 0.00 | 29 | 1007.7 |
| 20260506231007 | 61 | 102 | 5.2 | 7.8 | 0.00 | 0.00 | 0.00 | 30 | 1007.8 |
| 20260506230507 | 61 | 113 | 5.2 | 7.8 | 0.00 | 0.00 | 0.00 | 28 | 1007.9 |
| 20260506225937 | 61 | 108 | 6.1 | 7.0 | 0.00 | 0.00 | 0.00 | 28 | 1008.0 |
| 20260506225437 | 62 | 120 | 7.8 | 10.4 | 0.00 | 0.00 | 0.00 | 28 | 1008.1 |
| 20260506224937 | 62 | 133 | 6.1 | 7.8 | 0.00 | 0.00 | 0.00 | 29 | 1008.0 |
| 20260506224407 | 62 | 142 | 5.2 | 8.7 | 0.00 | 0.00 | 0.00 | 29 | 1008.2 |
| 20260506223837 | 61 | 123 | 5.2 | 7.0 | 0.00 | 0.00 | 0.00 | 28 | 1008.2 |
| 20260506223307 | 62 | 154 | 5.2 | 7.0 | 0.00 | 0.00 | 0.00 | 29 | 1008.4 |
| 20260506222807 | 61 | 109 | 4.3 | 6.1 | 0.00 | 0.00 | 0.00 | 28 | 1008.4 |
| 20260506222237 | 62 | 136 | 6.1 | 7.8 | 0.00 | 0.00 | 0.00 | 28 | 1008.4 |
| 20260506221737 | 62 | 143 | 6.1 | 11.3 | 0.00 | 0.00 | 0.00 | 28 | 1008.4 |
| 20260506221207 | 62 | 143 | 1.7 | 2.6 | 0.00 | 0.00 | 0.00 | 27 | 1008.4 |
| 20260506220707 | 63 | 153 | 5.2 | 7.8 | 0.00 | 0.00 | 0.00 | 28 | 1008.5 |
| 20260506220137 | 63 | 145 | 5.2 | 8.7 | 0.00 | 0.00 | 0.00 | 27 | 1008.5 |
| 20260506215607 | 63 | 169 | 7.8 | 10.4 | 0.00 | 0.00 | 0.00 | 28 | 1008.6 |
| 20260506215107 | 63 | 166 | 7.0 | 11.3 | 0.00 | 0.00 | 0.00 | 27 | 1008.7 |
| 20260506214537 | 63 | 202 | 1.7 | 2.6 | 0.00 | 0.00 | 0.00 | 27 | 1008.8 |
| 20260506214007 | 62 | 172 | 5.2 | 6.1 | 0.00 | 0.00 | 0.00 | 28 | 1008.9 |
| 20260506213507 | 62 | 216 | 7.8 | 10.4 | 0.00 | 0.00 | 0.00 | 27 | 1009.0 |
| 20260506212937 | 62 | 170 | 5.2 | 6.1 | 0.00 | 0.00 | 0.00 | 27 | 1009.0 |
| 20260506212437 | 62 | 186 | 7.0 | 7.8 | 0.00 | 0.00 | 0.00 | 28 | 1009.1 |
| 20260506211907 | 62 | 110 | 4.3 | 6.1 | 0.00 | 0.00 | 0.00 | 28 | 1009.1 |
| 20260506211407 | 61 | 149 | 6.1 | 10.4 | 0.00 | 0.00 | 0.00 | 29 | 1009.2 |
| 20260506210837 | 60 | 123 | 12.2 | 13.9 | 0.00 | 0.00 | 0.00 | 28 | 1009.3 |
| 20260506210337 | 61 | 123 | 10.4 | 14.8 | 0.00 | 0.00 | 0.00 | 28 | 1009.4 |
| 20260506205807 | 61 | 112 | 6.1 | 10.4 | 0.00 | 0.00 | 0.00 | 28 | 1009.5 |
| 20260506205237 | 60 | 169 | 7.0 | 7.8 | 0.00 | 0.00 | 0.00 | 28 | 1009.6 |
| 20260506204707 | 60 | 161 | 7.0 | 12.2 | 0.00 | 0.00 | 0.00 | 30 | 1009.7 |
| 20260506204137 | 60 | 136 | 10.4 | 13.0 | 0.00 | 0.00 | 0.00 | 28 | 1009.7 |
| 20260506203637 | 60 | 147 | 7.8 | 11.3 | 0.00 | 0.00 | 0.00 | 29 | 1009.7 |
| 20260506203107 | 60 | 149 | 8.7 | 13.0 | 0.00 | 0.00 | 0.00 | 29 | 1009.8 |
| 20260506202607 | 60 | 132 | 11.3 | 17.4 | 0.00 | 0.00 | 0.00 | 28 | 1009.8 |
| 20260506202107 | 61 | 145 | 11.3 | 17.4 | 0.00 | 0.00 | 0.00 | 29 | 1009.9 |
| 20260506201537 | 60 | 126 | 10.4 | 15.6 | 0.00 | 0.00 | 0.00 | 29 | 1010.0 |
| 20260506201037 | 59 | 151 | 5.2 | 7.0 | 0.00 | 0.00 | 0.00 | 29 | 1010.1 |
| 20260506200537 | 59 | 162 | 4.3 | 7.8 | 0.00 | 0.00 | 0.00 | 29 | 1010.2 |
| 20260506200007 | 59 | 159 | 7.0 | 10.4 | 0.00 | 0.00 | 0.00 | 30 | 1010.3 |
| 20260506195507 | 59 | 145 | 8.7 | 10.4 | 0.00 | 0.00 | 0.00 | 29 | 1010.3 |
| 20260506194937 | 59 | 142 | 7.8 | 12.2 | 0.00 | 0.00 | 0.00 | 29 | 1010.4 |
| 20260506194437 | 59 | 155 | 4.3 | 7.8 | 0.00 | 0.00 | 0.00 | 29 | 1010.5 |
| 20260506193937 | 58 | 146 | 7.0 | 17.4 | 0.00 | 0.00 | 0.00 | 30 | 1010.5 |
| 20260506193437 | 58 | 159 | 7.8 | 10.4 | 0.00 | 0.00 | 0.00 | 31 | 1010.6 |
| 20260506192907 | 59 | 158 | 5.2 | 7.0 | 0.00 | 0.00 | 0.00 | 30 | 1010.6 |
| 20260506192407 | 58 | 165 | 6.1 | 8.7 | 0.00 | 0.00 | 0.00 | 30 | 1010.8 |
| 20260506191837 | 58 | 164 | 4.3 | 8.7 | 0.00 | 0.00 | 0.00 | 31 | 1010.8 |
| 20260506191337 | 58 | 179 | 5.2 | 6.1 | 0.00 | 0.00 | 0.00 | 30 | 1010.8 |
| 20260506190807 | 57 | 147 | 6.1 | 11.3 | 0.00 | 0.00 | 0.00 | 30 | 1010.9 |
| 20260506190307 | 57 | 130 | 10.4 | 14.8 | 0.00 | 0.00 | 0.00 | 31 | 1010.9 |
| 20260506185807 | 57 | 150 | 7.8 | 10.4 | 0.00 | 0.00 | 0.00 | 30 | 1011.1 |
| 20260506185307 | 57 | 158 | 6.1 | 12.2 | 0.00 | 0.00 | 0.00 | 31 | 1011.2 |
| 20260506184807 | 56 | 154 | 11.3 | 13.0 | 0.00 | 0.00 | 0.00 | 31 | 1011.2 |
| 20260506184237 | 56 | 170 | 7.8 | 10.4 | 0.00 | 0.00 | 0.00 | 32 | 1011.3 |
| 20260506183737 | 56 | 172 | 6.1 | 10.4 | 0.00 | 0.00 | 0.00 | 32 | 1011.4 |
| 20260506183237 | 56 | 163 | 7.8 | 10.4 | 0.00 | 0.00 | 0.00 | 33 | 1011.5 |
| 20260506182707 | 55 | 161 | 8.7 | 12.2 | 0.00 | 0.00 | 0.00 | 33 | 1011.5 |
| 20260506182137 | 55 | 152 | 7.8 | 13.0 | 0.00 | 0.00 | 0.00 | 33 | 1011.6 |
| 20260506181607 | 55 | 145 | 7.0 | 10.4 | 0.00 | 0.00 | 0.00 | 33 | 1011.7 |
| 20260506181107 | 55 | 159 | 7.0 | 8.7 | 0.00 | 0.00 | 0.00 | 34 | 1011.8 |
| 20260506180537 | 55 | 166 | 7.8 | 11.3 | 0.00 | 0.00 | 0.00 | 35 | 1011.9 |
| 20260506180037 | 54 | 165 | 7.0 | 12.2 | 0.00 | 0.00 | 0.00 | 34 | 1011.9 |
| 20260506175507 | 54 | 177 | 8.7 | 12.2 | 0.00 | 0.00 | 0.00 | 36 | 1012.0 |
| 20260506175007 | 53 | 139 | 8.7 | 13.9 | 0.00 | 0.00 | 0.00 | 36 | 1012.1 |
| 20260506174437 | 53 | 178 | 7.8 | 10.4 | 0.00 | 0.00 | 0.00 | 37 | 1012.2 |
| 20260506173907 | 53 | 165 | 6.1 | 12.2 | 0.00 | 0.00 | 0.00 | 37 | 1012.3 |
| 20260506173407 | 52 | 141 | 10.4 | 14.8 | 0.00 | 0.00 | 0.00 | 38 | 1012.4 |
| 20260506172837 | 53 | 160 | 7.8 | 10.4 | 0.00 | 0.00 | 0.00 | 36 | 1012.5 |
| 20260506172337 | 53 | 163 | 7.0 | 7.8 | 0.00 | 0.00 | 0.00 | 37 | 1012.6 |
| 20260506171807 | 52 | 147 | 7.0 | 10.4 | 0.00 | 0.00 | 0.00 | 37 | 1012.7 |
| 20260506171237 | 52 | 158 | 7.8 | 11.3 | 0.00 | 0.00 | 0.00 | 38 | 1012.8 |
| 20260506170707 | 52 | 159 | 10.4 | 14.8 | 0.00 | 0.00 | 0.00 | 39 | 1012.8 |
| 20260506170207 | 51 | 160 | 7.0 | 10.4 | 0.00 | 0.00 | 0.00 | 38 | 1013.0 |
| 20260506165637 | 51 | 159 | 8.7 | 10.4 | 0.00 | 0.00 | 0.00 | 38 | 1013.2 |
| 20260506165107 | 51 | 156 | 8.7 | 12.2 | 0.00 | 0.00 | 0.00 | 38 | 1013.2 |
| 20260506164537 | 50 | 173 | 7.8 | 10.4 | 0.00 | 0.00 | 0.00 | 39 | 1013.2 |
| 20260506164037 | 50 | 156 | 11.3 | 13.0 | 0.00 | 0.00 | 0.00 | 40 | 1013.3 |
| 20260506163507 | 50 | 166 | 8.7 | 10.4 | 0.00 | 0.00 | 0.00 | 40 | 1013.3 |
| 20260506163007 | 50 | 154 | 7.8 | 13.0 | 0.00 | 0.00 | 0.00 | 42 | 1013.2 |
| 20260506162437 | 49 | 156 | 10.4 | 13.0 | 0.00 | 0.00 | 0.00 | 40 | 1013.4 |
| 20260506161937 | 49 | 155 | 7.8 | 11.3 | 0.00 | 0.00 | 0.00 | 42 | 1013.5 |
| 20260506161437 | 49 | 160 | 7.0 | 11.3 | 0.00 | 0.00 | 0.00 | 42 | 1013.5 |
| 20260506160907 | 49 | 156 | 7.0 | 11.3 | 0.00 | 0.00 | 0.00 | 43 | 1013.5 |
| 20260506160407 | 49 | 168 | 8.7 | 12.2 | 0.00 | 0.00 | 0.00 | 40 | 1013.7 |
| 20260506155837 | 48 | 184 | 7.0 | 11.3 | 0.00 | 0.00 | 0.00 | 42 | 1013.8 |
| 20260506155337 | 48 | 161 | 8.7 | 10.4 | 0.00 | 0.00 | 0.00 | 46 | 1013.8 |
| 20260506154807 | 47 | 137 | 8.7 | 12.2 | 0.00 | 0.00 | 0.00 | 48 | 1013.8 |
| 20260506154307 | 47 | 144 | 7.8 | 11.3 | 0.00 | 0.00 | 0.00 | 49 | 1014.0 |
| 20260506153807 | 46 | 146 | 7.0 | 10.4 | 0.00 | 0.00 | 0.00 | 50 | 1014.0 |
| 20260506153307 | 45 | 155 | 7.8 | 10.4 | 0.00 | 0.00 | 0.00 | 51 | 1014.2 |
| 20260506152807 | 45 | 153 | 7.8 | 12.2 | 0.00 | 0.00 | 0.00 | 53 | 1014.2 |
| 20260506152237 | 44 | 157 | 7.8 | 10.4 | 0.00 | 0.00 | 0.00 | 56 | 1014.3 |
| 20260506151737 | 44 | 151 | 7.0 | 10.4 | 0.00 | 0.00 | 0.00 | 58 | 1014.4 |
| 20260506151237 | 43 | 144 | 7.8 | 11.3 | 0.00 | 0.00 | 0.00 | 58 | 1014.5 |
| 20260506150737 | 42 | 145 | 7.0 | 10.4 | 0.00 | 0.00 | 0.00 | 59 | 1014.6 |
| 20260506150207 | 41 | 153 | 7.0 | 10.4 | 0.00 | 0.00 | 0.00 | 62 | 1014.6 |
| 20260506145637 | 40 | 159 | 6.1 | 6.1 | 0.00 | 0.00 | 0.00 | 65 | 1014.7 |
| 20260506145137 | 40 | 147 | 6.1 | 7.8 | 0.00 | 0.00 | 0.00 | 65 | 1014.9 |
| 20260506144607 | 39 | 141 | 7.0 | 8.7 | 0.00 | 0.00 | 0.00 | 68 | 1014.9 |
| 20260506144037 | 38 | 148 | 7.0 | 10.4 | 0.00 | 0.00 | 0.00 | 69 | 1014.9 |
| 20260506143507 | 38 | 153 | 6.1 | 8.7 | 0.00 | 0.00 | 0.00 | 69 | 1015.1 |
| 20260506143007 | 37 | 157 | 6.1 | 7.0 | 0.00 | 0.00 | 0.00 | 69 | 1015.2 |
| 20260506142437 | 37 | 139 | 5.2 | 8.7 | 0.00 | 0.00 | 0.00 | 70 | 1015.1 |
| 20260506141907 | 36 | 140 | 6.1 | 7.8 | 0.00 | 0.00 | 0.00 | 72 | 1015.2 |
| 20260506141407 | 36 | 153 | 5.2 | 6.1 | 0.00 | 0.00 | 0.00 | 72 | 1015.3 |
| 20260506140907 | 35 | 141 | 5.2 | 6.1 | 0.00 | 0.00 | 0.00 | 74 | 1015.4 |
| 20260506140337 | 34 | 127 | 7.0 | 10.4 | 0.00 | 0.00 | 0.00 | 76 | 1015.4 |
| 20260506135837 | 33 | 147 | 6.1 | 7.0 | 0.00 | 0.00 | 0.00 | 77 | 1015.5 |
| 20260506135307 | 33 | 139 | 5.2 | 7.0 | 0.00 | 0.00 | 0.00 | 78 | 1015.5 |
| 20260506134807 | 32 | 138 | 4.3 | 7.0 | 0.00 | 0.00 | 0.00 | 80 | 1015.6 |
| 20260506134307 | 31 | 138 | 5.2 | 6.1 | 0.00 | 0.00 | 0.00 | 81 | 1015.6 |
| 20260506133807 | 30 | 140 | 4.3 | 6.1 | 0.00 | 0.00 | 0.00 | 81 | 1015.7 |
| 20260506133237 | 29 | 130 | 4.3 | 7.0 | 0.00 | 0.00 | 0.00 | 82 | 1015.8 |